• In Belarus
  • List of Countries
  • For 7 days
  • Water Temperature
  • Satellite Maps
  • Weather Map
  • Weather Widgets
  • user-avatar
    Login

    Hourly Weather Laksau

    Today, 22 February, Friday

    Time Temperature Precipitation Wind Pressure Humidity
    00:00 +23°C° 0 mm 1 mps 703 mmHg 59%
    01:00 +22°C° 0 mm 1 mps 703 mmHg 61%
    02:00 +22°C° 0 mm 1 mps 702 mmHg 66%
    03:00 +22°C° 0 mm 1 mps 702 mmHg 71%
    04:00 +21°C° 0 mm 1 mps 702 mmHg 76%
    05:00 +21°C° 0 mm 1 mps 703 mmHg 81%
    06:00 +22°C° 0 mm 1 mps 703 mmHg 85%
    07:00 +22°C° 0 mm 1 mps 703 mmHg 88%
    08:00 +24°C° 0 mm 1 mps 704 mmHg 78%
    09:00 +27°C° 0 mm 1 mps 704 mmHg 68%
    10:00 +29°C° 0 mm 1 mps 705 mmHg 58%
    11:00 +30°C° 0 mm 1 mps 705 mmHg 53%
    12:00 +31°C° 0 mm 1 mps 704 mmHg 49%
    13:00 +32°C° 0 mm 1 mps 704 mmHg 45%
    14:00 +31°C° 0 mm 1 mps 703 mmHg 47%
    15:00 +30°C° 0 mm 1 mps 703 mmHg 49%
    16:00 +30°C° 0 mm 1 mps 702 mmHg 51%
    17:00 +28°C° 0 mm 1 mps 702 mmHg 60%
    18:00 +26°C° 0 mm 1 mps 702 mmHg 69%
    19:00 +24°C° 0 mm 1 mps 702 mmHg 78%
    20:00 +24°C° 0 mm 1 mps 702 mmHg 82%
    21:00 +23°C° 0 mm 1 mps 702 mmHg 86%
    22:00 +22°C° 0 mm 1 mps 703 mmHg 90%
    23:00 +22°C° 0 mm 1 mps 702 mmHg 91%

    Tomorrow, 23 February, Saturday

    Time Temperature Precipitation Wind Pressure Humidity
    00:00 +22°C° 0 mm 1 mps 702 mmHg 92%
    01:00 +22°C° 0 mm 1 mps 702 mmHg 92%
    02:00 +21°C° 0 mm 1 mps 702 mmHg 92%
    03:00 +21°C° 0 mm 1 mps 701 mmHg 92%
    04:00 +21°C° 0 mm 1 mps 701 mmHg 92%
    05:00 +21°C° 0 mm 1 mps 701 mmHg 91%
    06:00 +22°C° 0 mm 1 mps 701 mmHg 91%
    07:00 +22°C° 0 mm 1 mps 702 mmHg 91%
    08:00 +24°C° 0.1 mm 1 mps 703 mmHg 78%
    09:00 +27°C° 0.1 mm 1 mps 703 mmHg 66%
    10:00 +30°C° 0.1 mm 1 mps 704 mmHg 54%
    11:00 +30°C° 0.4 mm 1 mps 703 mmHg 54%
    12:00 +30°C° 0.4 mm 2 mps 703 mmHg 54%
    13:00 +30°C° 0.4 mm 2 mps 702 mmHg 54%
    14:00 +30°C° 0.2 mm 2 mps 701 mmHg 53%
    15:00 +31°C° 0.2 mm 2 mps 701 mmHg 51%
    16:00 +31°C° 0.2 mm 2 mps 700 mmHg 50%
    17:00 +29°C° 0 mm 1 mps 700 mmHg 56%
    18:00 +27°C° 0 mm 1 mps 700 mmHg 63%
    19:00 +23°C° 0 mm 0 mps 700 mmHg 70%
    20:00 +23°C° 0 mm 0 mps 701 mmHg 71%
    21:00 +24°C° 0 mm 1 mps 701 mmHg 72%
    22:00 +24°C° 0 mm 1 mps 702 mmHg 73%
    23:00 +24°C° 0 mm 1 mps 701 mmHg 73%

    Day after tomorrow, 24 February, Sunday

    Time Temperature Precipitation Wind Pressure Humidity
    00:00 +21°C° 0 mm 0 mps 701 mmHg 74%
    01:00 +21°C° 0 mm 0 mps 701 mmHg 74%
    02:00 +21°C° 0 mm 0 mps 701 mmHg 75%
    03:00 +22°C° 0 mm 1 mps 700 mmHg 76%
    04:00 +22°C° 0 mm 1 mps 700 mmHg 76%
    05:00 +22°C° 0 mm 1 mps 701 mmHg 77%
    06:00 +22°C° 0 mm 1 mps 701 mmHg 78%
    07:00 +22°C° 0 mm 1 mps 702 mmHg 79%
    08:00 +26°C° 0 mm 1 mps 703 mmHg 68%
    09:00 +29°C° 0 mm 1 mps 703 mmHg 57%
    10:00 +32°C° 0 mm 1 mps 704 mmHg 45%
    11:00 +32°C° 0.3 mm 1 mps 704 mmHg 46%
    12:00 +32°C° 0.3 mm 1 mps 703 mmHg 48%
    13:00 +31°C° 0.3 mm 1 mps 702 mmHg 49%
    14:00 +32°C° 0.3 mm 1 mps 701 mmHg 48%
    15:00 +32°C° 0.3 mm 1 mps 701 mmHg 48%
    16:00 +32°C° 0.3 mm 1 mps 700 mmHg 48%
    17:00 +30°C° 0 mm 1 mps 700 mmHg 57%
    18:00 +27°C° 0 mm 1 mps 701 mmHg 66%
    19:00 +25°C° 0 mm 1 mps 701 mmHg 74%
    20:00 +25°C° 0 mm 1 mps 701 mmHg 79%
    21:00 +24°C° 0 mm 1 mps 702 mmHg 84%
    22:00 +23°C° 0 mm 1 mps 702 mmHg 89%
    23:00 +23°C° 0 mm 1 mps 702 mmHg 90%

    25 February, Monday

    Time Temperature Precipitation Wind Pressure Humidity
    00:00 +23°C° 0 mm 1 mps 702 mmHg 91%
    01:00 +23°C° 0 mm 1 mps 701 mmHg 92%
    02:00 +22°C° 0 mm 1 mps 701 mmHg 93%
    03:00 +22°C° 0 mm 1 mps 701 mmHg 93%
    04:00 +22°C° 0 mm 1 mps 701 mmHg 94%
    05:00 +22°C° 0 mm 1 mps 701 mmHg 93%
    06:00 +22°C° 0 mm 1 mps 702 mmHg 92%
    07:00 +22°C° 0 mm 1 mps 702 mmHg 91%
    08:00 +26°C° 0.2 mm 1 mps 703 mmHg 77%
    09:00 +29°C° 0.2 mm 1 mps 704 mmHg 63%
    10:00 +32°C° 0.2 mm 1 mps 705 mmHg 48%
    11:00 +32°C° 0.3 mm 1 mps 704 mmHg 47%
    12:00 +32°C° 0.3 mm 1 mps 703 mmHg 46%
    13:00 +32°C° 0.3 mm 1 mps 703 mmHg 45%
    14:00 +32°C° 0.4 mm 1 mps 702 mmHg 46%
    15:00 +30°C° 0.4 mm 0 mps 701 mmHg 47%
    16:00 +29°C° 0.4 mm 0 mps 701 mmHg 48%
    17:00 +29°C° 0.1 mm 1 mps 701 mmHg 56%
    18:00 +27°C° 0.1 mm 1 mps 701 mmHg 65%
    19:00 +25°C° 0.1 mm 1 mps 701 mmHg 74%
    20:00 +25°C° 0.1 mm 1 mps 702 mmHg 79%
    21:00 +24°C° 0.1 mm 1 mps 702 mmHg 83%
    22:00 +23°C° 0.1 mm 1 mps 703 mmHg 88%
    23:00 +23°C° 0 mm 1 mps 702 mmHg 90%

    26 February, Tuesday

    Time Temperature Precipitation Wind Pressure Humidity
    00:00 +22°C° 0 mm 1 mps 702 mmHg 91%
    01:00 +22°C° 0 mm 1 mps 702 mmHg 93%
    02:00 +22°C° 0 mm 1 mps 702 mmHg 93%
    03:00 +22°C° 0 mm 1 mps 701 mmHg 93%
    04:00 +21°C° 0 mm 1 mps 701 mmHg 94%
    05:00 +22°C° 0 mm 1 mps 702 mmHg 92%
    06:00 +22°C° 0 mm 1 mps 702 mmHg 91%
    07:00 +22°C° 0 mm 1 mps 703 mmHg 90%
    08:00 +26°C° 0.1 mm 1 mps 704 mmHg 74%
    09:00 +29°C° 0.1 mm 1 mps 705 mmHg 58%
    10:00 +33°C° 0.1 mm 1 mps 705 mmHg 43%
    11:00 +33°C° 0.3 mm 1 mps 705 mmHg 43%
    12:00 +32°C° 0.3 mm 1 mps 704 mmHg 44%
    13:00 +32°C° 0.3 mm 1 mps 703 mmHg 44%
    14:00 +32°C° 0.2 mm 1 mps 702 mmHg 44%
    15:00 +30°C° 0.2 mm 0 mps 702 mmHg 43%
    16:00 +31°C° 0.2 mm 0 mps 701 mmHg 43%
    17:00 +28°C° 0.3 mm 0 mps 701 mmHg 53%
    18:00 +28°C° 0.3 mm 1 mps 702 mmHg 62%
    19:00 +25°C° 0.3 mm 1 mps 702 mmHg 72%
    20:00 +25°C° 0.2 mm 1 mps 702 mmHg 75%
    21:00 +24°C° 0.2 mm 1 mps 702 mmHg 78%
    22:00 +24°C° 0.2 mm 1 mps 703 mmHg 82%
    23:00 +23°C° 0 mm 1 mps 703 mmHg 82%

    27 February, Wednesday

    Time Temperature Precipitation Wind Pressure Humidity
    00:00 +23°C° 0 mm 1 mps 702 mmHg 83%
    01:00 +23°C° 0 mm 1 mps 702 mmHg 83%
    02:00 +23°C° 0 mm 1 mps 702 mmHg 83%
    03:00 +23°C° 0 mm 1 mps 701 mmHg 82%
    04:00 +23°C° 0 mm 1 mps 701 mmHg 81%
    05:00 +22°C° 0.1 mm 1 mps 702 mmHg 81%
    06:00 +20°C° 0.1 mm 0 mps 702 mmHg 81%
    07:00 +20°C° 0.1 mm 0 mps 702 mmHg 82%
    08:00 +24°C° 0.1 mm 0 mps 703 mmHg 68%
    09:00 +28°C° 0.1 mm 0 mps 704 mmHg 55%
    10:00 +32°C° 0.1 mm 0 mps 705 mmHg 41%
    11:00 +32°C° 0.2 mm 0 mps 704 mmHg 40%
    12:00 +34°C° 0.2 mm 1 mps 703 mmHg 40%
    13:00 +33°C° 0.2 mm 1 mps 702 mmHg 39%
    14:00 +33°C° 0.3 mm 1 mps 702 mmHg 41%
    15:00 +32°C° 0.3 mm 1 mps 701 mmHg 44%
    16:00 +29°C° 0.3 mm 0 mps 701 mmHg 46%
    17:00 +29°C° 0.1 mm 1 mps 701 mmHg 54%
    18:00 +27°C° 0.1 mm 1 mps 701 mmHg 61%
    19:00 +25°C° 0.1 mm 1 mps 701 mmHg 68%
    20:00 +25°C° 0.1 mm 1 mps 701 mmHg 69%
    21:00 +25°C° 0.1 mm 1 mps 702 mmHg 70%
    22:00 +23°C° 0.1 mm 0 mps 702 mmHg 71%
    23:00 +22°C° 0 mm 0 mps 702 mmHg 71%
    Show more